TimeMDT,TemperatureF,Dew PointF,Humidity,Sea Level PressureIn,VisibilityMPH,Wind Direction,Wind SpeedMPH,Gust SpeedMPH,PrecipitationIn,Events,Conditions,WindDirDegrees,DateUTC
12:58 AM,15.6,12.4,87,30.35,10.0,North,9.2,-,N/A,,Clear,360,2013-04-24 06:58:00
1:58 AM,15.4,11.7,85,30.33,10.0,North,4.6,-,N/A,,Clear,360,2013-04-24 07:58:00
2:58 AM,13.8,10.8,88,30.32,10.0,North,8.1,-,N/A,,Clear,360,2013-04-24 08:58:00
3:58 AM,14.0,11.1,88,30.31,10.0,North,8.1,-,N/A,,Clear,360,2013-04-24 09:58:00
4:58 AM,13.3,10.0,87,30.30,10.0,North,8.1,-,N/A,,Clear,360,2013-04-24 10:58:00
5:58 AM,15.4,11.7,85,30.30,10.0,North,8.1,-,N/A,,Clear,360,2013-04-24 11:58:00
6:58 AM,18.9,15.3,86,30.30,10.0,North,8.1,-,N/A,,Clear,10,2013-04-24 12:58:00
7:58 AM,23.9,18.9,81,30.30,10.0,North,6.9,-,N/A,,Clear,350,2013-04-24 13:58:00
8:58 AM,30.0,22.6,74,30.25,10.0,North,2.3,-,N/A,,Clear,360,2013-04-24 14:58:00
9:58 AM,39.4,15.8,38,30.25,10.0,SE,5.8,-,N/A,,Clear,130,2013-04-24 15:58:00
10:58 AM,41.2,14.7,34,30.25,10.0,SSE,9.2,-,N/A,,Partly Cloudy,160,2013-04-24 16:58:00
11:58 AM,42.3,14.4,32,30.24,10.0,Variable,6.9,-,N/A,,Mostly Cloudy,0,2013-04-24 17:58:00
12:58 PM,43.3,12.0,28,30.24,10.0,SE,8.1,-,N/A,,Mostly Cloudy,130,2013-04-24 18:58:00
1:58 PM,43.9,13.1,29,30.26,10.0,Variable,5.8,-,N/A,,Partly Cloudy,0,2013-04-24 19:58:00
2:58 PM,44.1,15.1,31,30.26,10.0,Variable,4.6,-,N/A,,Clear,0,2013-04-24 20:58:00
3:58 PM,46.9,13.3,26,30.24,10.0,Variable,2.3,-,N/A,,Clear,0,2013-04-24 21:58:00
4:58 PM,47.5,16.3,29,30.22,10.0,SE,6.9,-,N/A,,Partly Cloudy,140,2013-04-24 22:58:00
5:58 PM,46.6,14.5,28,30.23,10.0,West,2.3,-,N/A,,Clear,280,2013-04-24 23:58:00
6:58 PM,47.3,15.1,28,30.22,10.0,South,5.8,-,N/A,,Clear,180,2013-04-25 00:58:00
7:58 PM,41.7,14.7,34,30.26,10.0,SE,2.3,-,N/A,,Clear,130,2013-04-25 01:58:00
8:58 PM,37.9,17.4,43,30.27,10.0,North,8.1,-,N/A,,Clear,350,2013-04-25 02:58:00
9:58 PM,27.1,18.9,71,30.29,10.0,NNW,9.2,-,N/A,,Clear,340,2013-04-25 03:58:00
10:58 PM,25.5,18.3,74,30.28,10.0,NNW,8.1,-,N/A,,Clear,340,2013-04-25 04:58:00
11:58 PM,24.8,18.0,75,30.28,10.0,North,6.9,-,N/A,,Clear,350,2013-04-25 05:58:00